McCook, NE

6:02 AM CDT on August 24, 2016 (GMT -0500)
McCook Municipal

Weather History for KMCK - April, 2013

Change the Weather History Date:

Friday, April 19, 2013

  Actual Average Record
Temperature  
Mean Temperature 40 °F 51 °F  
Max Temperature 59 °F 66 °F 91 °F (1961)
Min Temperature 20 °F 36 °F 20 °F (2013)
Degree Days  
Heating Degree Days 26    
Moisture  
Dew Point 25 °F    
Average Humidity 59    
Maximum Humidity 85    
Minimum Humidity 36    
Precipitation  
Precipitation 0.00 in 0.09 in 1.20 in (1959)
Month to date precipitation 0.77 1.29  
Year to date precipitation 2.61 3.78  
Sea Level Pressure  
Sea Level Pressure 30.07 in    
Wind  
Wind Speed 13 mph (NW)    
Max Wind Speed 22 mph    
Max Gust Speed 33 mph    
Visibility 10 miles    
Events      
T = Trace of Precipitation, MM = Missing Value Source: NWS Daily Summary

Daily Weather History Graph

Daily Weather History Graph

Search for Another Location

Airport or City:

Trip Planner

Search our weather history database for the weather conditions in past years. The results will help you decide how hot, cold, wet, or windy it might be!

Date:

Astronomy

Apr. 19, 2013 Rise Set
Actual Time 6:57 AM CDT 8:25 PM CDT
Civil Twilight 6:29 AM CDT 8:54 PM CDT
Nautical Twilight 5:55 AM CDT 9:28 PM CDT
Astronomical Twilight 5:19 AM CDT 10:04 PM CDT
Moon 2:11 PM CDT (4/19) 3:14 AM CDT (4/19)
Length of Visible Light 14h 24m
Length of Day
13h 27m
First Quarter, 62% of the Moon is Illuminated
Apr 19
First Quarter
Apr 25
Full
May 2
Last Quarter
May 9
New
May 17
First Quarter

Hourly Weather History & Observations

Time (CDT) Temp. Windchill Dew Point Humidity Pressure Visibility Wind Dir Wind Speed Gust Speed Precip Events Conditions
12:53 AM 27.0 °F 15.2 °F 19.9 °F 75% 30.15 in 10.0 mi WNW 15.0 mph - N/A   Clear
1:53 AM 26.1 °F 15.0 °F 19.0 °F 75% 30.14 in 10.0 mi West 12.7 mph - N/A   Clear
2:53 AM 26.1 °F 14.5 °F 19.0 °F 75% 30.12 in 10.0 mi West 13.8 mph - N/A   Clear
3:53 AM 25.0 °F 14.2 °F 19.0 °F 78% 30.12 in 10.0 mi West 11.5 mph - N/A   Clear
4:53 AM 23.0 °F 15.8 °F 18.0 °F 81% 30.12 in 10.0 mi SW 5.8 mph - N/A   Clear
5:53 AM 21.0 °F 11.4 °F 17.1 °F 85% 30.11 in 10.0 mi WSW 8.1 mph - N/A   Clear
6:53 AM 23.0 °F 13.9 °F 18.0 °F 81% 30.10 in 10.0 mi West 8.1 mph - N/A   Clear
7:53 AM 26.1 °F 16.8 °F 19.9 °F 78% 30.09 in 10.0 mi WSW 9.2 mph - N/A   Scattered Clouds
8:53 AM 33.1 °F 22.6 °F 21.9 °F 64% 30.07 in 10.0 mi West 16.1 mph - N/A   Partly Cloudy
9:53 AM 39.9 °F 31.8 °F 25.0 °F 55% 30.06 in 10.0 mi WNW 15.0 mph 24.2 mph N/A   Clear
10:53 AM 48.0 °F - 28.0 °F 46% 30.06 in 10.0 mi NNW 20.7 mph - N/A   Clear
11:53 AM 50.0 °F - 28.9 °F 44% 30.07 in 10.0 mi NW 21.9 mph 25.3 mph N/A   Clear
12:53 PM 53.1 °F - 30.0 °F 41% 30.06 in 10.0 mi NW 21.9 mph 27.6 mph N/A   Clear
1:53 PM 54.0 °F - 28.9 °F 38% 30.04 in 10.0 mi NNW 21.9 mph 33.4 mph N/A   Scattered Clouds
2:53 PM 57.0 °F - 30.0 °F 36% 30.03 in 10.0 mi NNW 20.7 mph 27.6 mph N/A   Mostly Cloudy
3:53 PM 55.9 °F - 28.9 °F 36% 30.02 in 10.0 mi NW 20.7 mph 28.8 mph N/A   Mostly Cloudy
4:53 PM 55.0 °F - 30.0 °F 38% 30.02 in 10.0 mi North 13.8 mph - N/A   Overcast
5:53 PM 55.9 °F - 30.0 °F 37% 30.02 in 10.0 mi North 15.0 mph - N/A   Overcast
6:53 PM 55.0 °F - 30.0 °F 38% 30.02 in 10.0 mi NNE 9.2 mph - N/A   Partly Cloudy
7:53 PM 50.0 °F - 30.0 °F 46% 30.04 in 10.0 mi NE 11.5 mph - N/A   Clear
8:53 PM 44.1 °F 39.0 °F 30.0 °F 58% 30.05 in 10.0 mi ENE 9.2 mph - N/A   Clear
9:53 PM 39.9 °F 34.5 °F 30.0 °F 68% 30.07 in 10.0 mi East 8.1 mph - N/A   Clear
10:53 PM 37.0 °F 32.4 °F 28.9 °F 73% 30.08 in 10.0 mi East 5.8 mph - N/A   Clear
11:53 PM 35.1 °F 29.3 °F 28.0 °F 76% 30.07 in 10.0 mi ESE 6.9 mph - N/A   Mostly Cloudy